Regional Weather Roundup
Issued by NWS

Home | Current Version | Previous Version | Text Only | Print | Product List | Glossary Off
Versions: 1 2 3 4 5 6 7 8 9 10 11 12 13 14 15 16 17 18 19 20 21 22 23 24 25 26 27 28 29 30 31 32 33 34 35 36 37 38 39 40 41 42 43 44 45 46 47 48 49 50

000
ASUS43 KLOT 271406
RWRIL

ILLINOIS REGIONAL WEATHER ROUNDUP
NATIONAL WEATHER SERVICE CHICAGO/ROMEOVILLE IL
800 AM CST FRI FEB 27 2015

NOTE: "FAIR" INDICATES FEW OR NO CLOUDS BELOW 12,000 FEET WITH NO
SIGNIFICANT WEATHER AND/OR OBSTRUCTIONS TO VISIBILITY.

* THESE STATIONS ARE NOT UNDER NWS QUALITY CONTROL. THEY ALSO MAY NOT
  REPORT WEATHER SUCH AS PRECIPITATION OR FOG.

ILZ001-002-007-009-015-016-024-271500-
NORTHWEST ILLINOIS

CITY           SKY/WX    TMP DP  RH WIND       PRES   REMARKS
MOLINE         PTSUNNY   -9 -13  83 W8        30.62R WCI -25
STERLING*      MOSUNNY   -8 -11  84 W3        30.59R
SAVANNA*       MOSUNNY  -14 -21  74 S3        30.61R
$$

ILZ003-004-008-010-011-017-018-271500-
NORTH CENTRAL ILLINOIS

CITY           SKY/WX    TMP DP  RH WIND       PRES   REMARKS
ROCKFORD       SUNNY    -11 -15  82 CALM      30.58R
FREEPORT*      MOSUNNY  -10 -14  79 CALM      30.58R
ROCHELLE*      SUNNY    -18 -23  78 CALM      30.58R
DE KALB*       SUNNY     -7 -12  76 W8        30.55R WCI -22
PERU*          SUNNY     -6 -12  75 W6        30.60R WCI -19
$$

ILZ005-006-012>014-019>023-271500-
NORTHEAST ILLINOIS

CITY           SKY/WX    TMP DP  RH WIND       PRES   REMARKS
CHICAGO-OHARE  MOSUNNY    1  -9  62 NW8       30.55R WCI -13
CHICAGO-MIDWAY MOSUNNY    5  -4  66 NW6       30.56R WCI  -6
AURORA         SUNNY     -8 -14  74 W7        30.57R WCI -23
LANSING*       MOSUNNY   -2  -5  84 W5        30.56R WCI -12
JOLIET*        SUNNY     -4  -9  79 CALM      30.59R
WAUKEGAN       SUNNY      1  -9  62 W8        30.53R WCI -13
DUPAGE AIRPORT SUNNY      1  -8  66 NW9       30.54R WCI -14
KANKAKEE*      SUNNY     -7 -12  78 W6        30.59R WCI -20
WHEELING       SUNNY      3  -9  57 NW8       30.57R WCI -10
MORRIS*        SUNNY     -8 -13  79 W5        30.58R WCI -20
ROMEOVILLE*    SUNNY     -3  -8  79 CALM      30.57R
NORTHERLY ISL    N/A     10  -2  58 W6          N/A  WCI   1
$$

LMZ740>746-271500-
SOUTHERN LAKE MICHIGAN

STATION/POSITION SKY/WX   TEMP    WIND        PRES    VSBY  WAVE
                          AIR SEA DIR/SP/G                  HT/PER
                          (F)     (DEG/KT/KT) (MB)    (MI)  (FT/S)
WAUKEGAN HARBOR             3     290/ 10/ 16   N/A
HARRISON CRIB               7     290/  8/ 10   N/A
BURNHAM HARBOR             10     270/  7/ 10   N/A
CALUMET HARBOR              7     270/  5/  8 1033.1R
MICHIGAN CITY               5     170/  5/  7   N/A
$$

ILZ025>027-034>036-040-047-049-050-058-095>099-271500-
WEST-CENTRAL ILLINOIS

CITY           SKY/WX    TMP DP  RH WIND       PRES   REMARKS
QUINCY         MOSUNNY   -4 -10  75 W5        30.64R WCI -15
GALESBURG*     SNOW     -10 -14  82 NW6       30.61R VSB 1/2 WCI -24
MACOMB*        PTSUNNY  -10 -14  82 W6        30.65R WCI -23
JACKSONVILLE*  MOSUNNY   -6 -11  77 SW5       30.65R WCI -16
PITTSFIELD*    MOSUNNY   -1  -7  75 W6        30.65R WCI -12
$$

ILZ028>032-037-038-041>044-048-051>054-059>061-271500-
CENTRAL ILLINOIS

CITY           SKY/WX    TMP DP  RH WIND       PRES   REMARKS
PONTIAC        SUNNY     -6 -10  81 W3        30.60R
BLOOMINGTON    SUNNY     -1  -8  72 NW5       30.58R WCI -11
DECATUR        MOSUNNY    0  -7  72 NW7       30.61R HAZE    WCI -13
PEORIA         SUNNY     -3 -11  68 NW3       30.62R
LACON*         MOSUNNY   -7 -13  76 CALM      30.61R
LINCOLN*       MOSUNNY    0  -7  73 W6        30.66R WCI -12
SPRINGFIELD    MOSUNNY   -7 -12  79 SW7       30.64R WCI -21
TAYLORVILLE    PTSUNNY   -4  -9  77 W5        30.63R WCI -15
$$

ILZ033-039-045-046-055>057-062-063-271500-
EAST-CENTRAL ILLINOIS

CITY           SKY/WX    TMP DP  RH WIND       PRES   REMARKS
CHAMPAIGN      MOSUNNY   -6  -9  86 W6        30.58R WCI -19
DANVILLE*      SUNNY     -1  -7  77 W5        30.56R WCI -11
RANTOUL*       SUNNY     -1  -8  74 W6        30.58R WCI -13
MATTOON        SUNNY     -1  -8  72 NW7       30.59R WCI -14
PARIS*         SUNNY     -2  -6  81 NW5       30.60R WCI -12
$$

ILZ079-100>102-271500-
SOUTHWEST ILLINOIS

CITY           SKY/WX    TMP DP  RH WIND       PRES   REMARKS
BELLEVILLE     SUNNY      6  -1  70 NW10      30.66R WCI  -8
CAHOKIA*       SUNNY      7  -2  66 NW7       30.67R WCI  -5
SPARTA*        SUNNY      6  -2  69 N7        30.65R WCI  -5
$$

ILZ064>066-069>071-074>076-080>082-084>086-088>090-092>094-271500-
SOUTH-CENTRAL ILLINOIS

CITY           SKY/WX    TMP DP  RH WIND       PRES   REMARKS
CARBONDALE     SUNNY      9   0  67 N10       30.65R WCI  -5
CAIRO*         SUNNY     13   4  67 N8        30.63R WCI   2
EFFINGHAM*     MOSUNNY    1  -8  67 W6        30.64R WCI -11
MARION         SUNNY      9   1  72 N12       30.64R WCI  -6
MT. VERNON     SUNNY      7  -4  61 N3        30.64R
CENTRALIA*     SUNNY      5  -4  68 N8        30.64R WCI  -8
SALEM*         SUNNY      4  -4  68 NW8       30.64R WCI  -9
METROPOLIS*    SUNNY     12   6  77 N8        30.61R WCI   1
$$

ILZ067-068-072-073-078-083-087-091-271500-
SOUTHEAST ILLINOIS

CITY           SKY/WX    TMP DP  RH WIND       PRES   REMARKS
LAWRENCEVILLE  SUNNY     10   3  73 NW8       30.62R WCI  -2
FLORA*         SUNNY      1  -5  75 NW9       30.64R WCI -14
FAIRFIELD*     SUNNY      5  -2  71 NW3       30.63R
HARRISBURG*    MOSUNNY   10   3  75 N6        30.65R WCI   0
ROBINSON*      PTSUNNY    8   2  75 N8        30.63R WCI  -4
CARMI*         SUNNY     11   6  80 NW9       30.63R WCI  -2
$$

ABBREVIATIONS USED IN REMARKS
   TC - TEMPERATURE IN CELSIUS
  WCI - WIND CHILL INDEX
   HX - HEAT INDEX
  VSB - VISIBILITY
$$




USA.gov is the U.S. government's official web portal to all federal, state and local government web resources and services.